Weather History for Macon, GA

Change the Weather History Date:

Thursday, September 12, 2013

  Actual Average Record
Temperature  
Mean Temperature 78 °F 76 °F  
Max Temperature 92 °F 87 °F 97 °F (1962)
Min Temperature 63 °F 65 °F 48 °F (1940)
Degree Days  
Heating Degree Days 0 0  
Month to date heating degree days 0 0  
Since 1 July heating degree days 0 0  
Cooling Degree Days 13 11  
Month to date cooling degree days 173 152  
Year to date cooling degree days 1648 1896  
Growing Degree Days 27 (Base 50)    
Moisture  
Dew Point 66 °F    
Average Humidity 69    
Maximum Humidity 100    
Minimum Humidity 38    
Precipitation  
Precipitation 0.00 in 0.13 in 1.16 in (1986)
Month to date precipitation 0.13 1.56  
Year to date precipitation 58.26 33.50  
Sea Level Pressure  
Sea Level Pressure 30.01 in    
Wind  
Wind Speed 1 mph (WNW)    
Max Wind Speed 9 mph    
Max Gust Speed 15 mph    
Visibility 8 miles    
Events      
T = Trace of Precipitation, MM = Missing Value Source: NWS Daily Summary

Daily Weather History Graph

Daily Weather History Graph

Search for Another Location

Airport:

Trip Planner

Search our weather history database for the weather conditions in past years. The results will help you decide how hot, cold, wet, or windy it might be!

Date:

Astronomy

Sep. 12, 2013 Rise Set
Actual Time 7:16 AM EDT 7:44 PM EDT
Civil Twilight 6:51 AM EDT 8:09 PM EDT
Nautical Twilight 6:22 AM EDT 8:38 PM EDT
Astronomical Twilight 5:53 AM EDT 9:07 PM EDT
Moon 2:21 PM EDT (9/12) 12:01 AM EDT (9/12)
Length of Visible Light 13h 17m
Length of Day
12h 27m
Waxing Crescent, 50% of the Moon is Illuminated
Sep 12
Waxing Crescent
Sep 12
First Quarter
Sep 19
Full
Sep 26
Last Quarter
Oct 4
New

Hourly Weather History & Observations

Time (EDT) Temp. Heat Index Dew Point Humidity Pressure Visibility Wind Dir Wind Speed Gust Speed Precip Events Conditions
12:53 AM 68.0 °F - 66.9 °F 96% 30.09 in 8.0 mi Calm Calm - N/A   Clear
1:53 AM 66.9 °F - 66.0 °F 97% 30.08 in 6.0 mi Calm Calm - N/A   Clear
2:53 AM 66.0 °F - 66.0 °F 100% 30.08 in 5.0 mi Calm Calm - N/A   Clear
3:53 AM 66.0 °F - 64.9 °F 96% 30.07 in 4.0 mi Calm Calm - N/A   Clear
4:53 AM 64.9 °F - 64.0 °F 97% 30.07 in 5.0 mi Calm Calm - N/A   Clear
5:53 AM 64.0 °F - 64.0 °F 100% 30.07 in 5.0 mi Calm Calm - N/A   Clear
6:53 AM 63.0 °F - 63.0 °F 100% 30.08 in 4.0 mi Calm Calm - N/A   Clear
7:53 AM 64.0 °F - 64.0 °F 100% 30.08 in 4.0 mi Calm Calm - N/A   Clear
8:53 AM 70.0 °F - 66.9 °F 90% 30.08 in 7.0 mi Calm Calm - N/A   Clear
9:53 AM 77.0 °F - 69.1 °F 76% 30.07 in 10.0 mi WNW 4.6 mph - N/A   Clear
10:53 AM 82.9 °F 86.5 °F 69.1 °F 63% 30.07 in 10.0 mi Variable 4.6 mph - N/A   Clear
11:53 AM 87.1 °F 88.3 °F 64.0 °F 46% 30.06 in 10.0 mi Calm Calm - N/A   Clear
12:53 PM 88.0 °F 89.3 °F 64.0 °F 45% 30.03 in 10.0 mi Variable 3.5 mph - N/A   Partly Cloudy
1:53 PM 88.0 °F 87.6 °F 60.1 °F 39% 30.01 in 10.0 mi Variable 3.5 mph - N/A   Clear
2:53 PM 90.0 °F 90.0 °F 61.0 °F 38% 29.98 in 10.0 mi Calm Calm - N/A   Clear
3:53 PM 91.0 °F 91.5 °F 62.1 °F 38% 29.95 in 10.0 mi Variable 3.5 mph - N/A   Partly Cloudy
4:53 PM 91.0 °F 92.6 °F 64.0 °F 41% 29.93 in 10.0 mi West 3.5 mph - N/A   Mostly Cloudy
5:53 PM 89.1 °F 90.3 °F 64.0 °F 43% 29.91 in 10.0 mi WNW 3.5 mph - N/A   Partly Cloudy
6:53 PM 86.0 °F 89.4 °F 68.0 °F 55% 29.90 in 10.0 mi Calm Calm - N/A   Partly Cloudy
7:53 PM 81.0 °F 85.2 °F 72.0 °F 74% 29.91 in 10.0 mi Calm Calm - N/A   Partly Cloudy
8:53 PM 75.9 °F - 70.0 °F 82% 29.91 in 10.0 mi Calm Calm - N/A   Clear
9:53 PM 77.0 °F - 70.0 °F 79% 29.92 in 10.0 mi Calm Calm - N/A   Clear
10:53 PM 73.0 °F - 69.1 °F 87% 29.94 in 10.0 mi West 3.5 mph - N/A   Clear
11:53 PM 73.9 °F - 70.0 °F 87% 29.93 in 9.0 mi Calm Calm - N/A   Partly Cloudy